Weather History for North Island, CA

Change the Weather History Date:

Tuesday, January 29, 2013

  Actual Average Record
Temperature  
Mean Temperature 53 °F -  
Max Temperature 60 °F 61 °F 81 °F (2009)
Min Temperature 46 °F 48 °F 41 °F (1999)
Degree Days  
Heating Degree Days 12    
Growing Degree Days 3 (Base 50)    
Moisture  
Dew Point 43 °F    
Average Humidity 67    
Maximum Humidity 74    
Minimum Humidity 55    
Precipitation  
Precipitation 0.00 in - - ()
Sea Level Pressure  
Sea Level Pressure 30.21 in    
Wind  
Wind Speed 4 mph (SE)    
Max Wind Speed 10 mph    
Max Gust Speed -    
Visibility 10 miles    
Events      
Averages and records for this station are not official NWS values.
T = Trace of Precipitation, MM = Missing Value Source: NWS Daily Summary

Daily Weather History Graph

Daily Weather History Graph

Search for Another Location

Airport:

Trip Planner

Search our weather history database for the weather conditions in past years. The results will help you decide how hot, cold, wet, or windy it might be!

Date:

Astronomy

Jan. 29, 2013 Rise Set
Actual Time 6:45 AM PST 5:19 PM PST
Civil Twilight 6:19 AM PST 5:45 PM PST
Nautical Twilight 5:49 AM PST 6:14 PM PST
Astronomical Twilight 5:20 AM PST 6:43 PM PST
Moon 8:06 PM PST (1/29) 7:56 AM PST (1/29)
Length of Visible Light 11h 25m
Length of Day
10h 33m
Waning Gibbous, 93% of the Moon is Illuminated
Jan 29
Waning Gibbous
Feb 3
Last Quarter
Feb 9
New
Feb 17
First Quarter
Feb 25
Full

Hourly Weather History & Observations

Time (PST) Temp. Windchill Dew Point Humidity Pressure Visibility Wind Dir Wind Speed Gust Speed Precip Events Conditions
12:52 AM 50.0 °F - 39.0 °F 66% 30.20 in 10.0 mi Calm Calm - N/A   Mostly Cloudy
1:52 AM 48.9 °F - 39.0 °F 69% 30.21 in 10.0 mi East 3.5 mph - N/A   Mostly Cloudy
2:52 AM 46.9 °F - 37.9 °F 71% 30.21 in 9.0 mi East 4.6 mph - N/A   Scattered Clouds
3:52 AM 48.0 °F - 37.9 °F 68% 30.20 in 10.0 mi ESE 3.5 mph - N/A   Scattered Clouds
4:52 AM 46.9 °F - 37.9 °F 71% 30.20 in 10.0 mi Calm Calm - N/A   Scattered Clouds
5:52 AM 46.0 °F - 37.9 °F 73% 30.22 in 10.0 mi Calm Calm - N/A   Scattered Clouds
6:52 AM 46.0 °F 44.8 °F 37.9 °F 73% 30.23 in 10.0 mi ESE 3.5 mph - N/A   Mostly Cloudy
7:52 AM 50.0 °F - 41.0 °F 71% 30.24 in 9.0 mi ESE 3.5 mph - N/A   Mostly Cloudy
8:52 AM 53.1 °F - 42.1 °F 66% 30.24 in 10.0 mi East 5.8 mph - N/A   Mostly Cloudy
9:24 AM 55.4 °F - 42.8 °F 63% 30.24 in 10.0 mi SE 6.9 mph - N/A   Mostly Cloudy
9:52 AM 57.0 °F - 44.1 °F 62% 30.24 in 10.0 mi SE 6.9 mph - N/A   Mostly Cloudy
10:52 AM 59.0 °F - 46.0 °F 62% 30.24 in 10.0 mi South 9.2 mph - N/A   Mostly Cloudy
11:52 AM 60.1 °F - 46.9 °F 62% 30.22 in 10.0 mi South 9.2 mph - N/A   Mostly Cloudy
12:52 PM 60.1 °F - 46.9 °F 62% 30.18 in 10.0 mi SSW 9.2 mph - N/A   Mostly Cloudy
1:52 PM 60.8 °F - 46.4 °F 59% 30.17 in 10.0 mi SW 10.4 mph - N/A   Mostly Cloudy
2:52 PM 60.1 °F - 46.9 °F 62% 30.17 in 10.0 mi SW 10.4 mph - N/A   Mostly Cloudy
3:52 PM 60.1 °F - 44.1 °F 55% 30.17 in 10.0 mi SW 8.1 mph - N/A   Mostly Cloudy
4:52 PM 57.9 °F - 43.0 °F 58% 30.18 in 10.0 mi SSW 5.8 mph - N/A   Mostly Cloudy
5:30 PM - - - N/A% - - North - - N/A   Unknown
5:52 PM 55.9 °F - 43.0 °F 62% 30.20 in 10.0 mi Calm Calm - N/A   Mostly Cloudy
6:52 PM 55.0 °F - 43.0 °F 64% 30.20 in 10.0 mi Calm Calm - N/A   Scattered Clouds
7:52 PM 54.0 °F - 45.0 °F 72% 30.20 in 10.0 mi SSE 3.5 mph - N/A   Scattered Clouds
8:52 PM 53.1 °F - 45.0 °F 74% 30.20 in 6.0 mi SE 5.8 mph - N/A   Haze
9:52 PM 53.1 °F - 45.0 °F 74% 30.19 in 9.0 mi East 3.5 mph - N/A   Scattered Clouds
10:52 PM 53.1 °F - 44.1 °F 71% 30.21 in 10.0 mi East 3.5 mph - N/A   Scattered Clouds
11:52 PM 52.0 °F - 44.1 °F 74% 30.22 in 10.0 mi Calm Calm - N/A   Scattered Clouds